Location: Spring Creek
(38.2870°N, 100.2160°W)
Time: 12:46:38
(UTC+00:00)

COSMOS 2406 - Visible Passes

Search period start: 20 September 2021 00:00
Search period end: 30 September 2021 00:00
Orbit: 842 x 865 km, 71.0° (Epoch: 19 September)

Date Brightness Start Highest point End Pass type
(mag) Time Alt. Az. Time Alt. Az. Time Alt. Az.
20 Sep 3.6 01:33:15 10° NNW 01:38:59 69° WSW 01:44:40 10° S visible
21 Sep 3.7 01:21:46 10° NNW 01:27:30 68° WSW 01:33:10 10° S visible
22 Sep 3.7 01:10:18 10° NNW 01:16:01 67° WSW 01:21:41 10° S visible
23 Sep 3.8 00:58:49 10° NNW 01:04:32 66° WSW 01:10:12 10° S visible
